Total_Precipitation_Accumulation
0.00 0.00 0.00 0.00 0.00 0.00 0.00 0.00 0.00 0.00 0.00 0.00 0.00 0.00 0.01 0.03 0.07 0.06 0.02 0.01 0.00 0.00 0.00 0.01 0.05 0.12 0.09 0.07 0.05 0.03 0.03 0.05 0.05 0.04 0.06 0.08 0.06 0.10 0.13 0.08 0.01 0.00 0.00 0.00 0.00 0.00 0.01 0.02 0.05
0.00 0.00 0.00 0.00 0.00 0.00 0.00 0.00 0.00 0.00 0.00 0.00 0.00 0.00 0.05 0.10 0.14 0.09 0.09 0.01 0.00 0.00 0.00 0.00 0.04 0.09 0.07 0.06 0.04 0.04 0.04 0.07 0.06 0.08 0.10 0.07 0.08 0.11 0.18 0.14 0.04 0.00 0.00 0.00 0.00 0.00 0.00 0.02 0.02
0.00 0.00 0.00 0.00 0.00 0.00 0.00 0.00 0.00 0.00 0.00 0.00 0.00 0.00 0.01 0.08 0.05 0.09 0.03 0.00 0.00 0.00 0.00 0.01 0.04 0.09 0.10 0.07 0.05 0.04 0.04 0.10 0.10 0.09 0.10 0.08 0.13 0.20 0.23 0.16 0.02 0.00 0.00 0.00 0.00 0.00 0.01 0.02 0.02
0.00 0.00 0.00 0.00 0.00 0.00 0.00 0.00 0.00 0.00 0.00 0.00 0.00 0.00 0.00 0.01 0.03 0.03 0.01 0.00 0.00 0.00 0.00 0.02 0.05 0.10 0.11 0.11 0.07 0.05 0.04 0.10 0.14 0.09 0.05 0.11 0.20 0.33 0.27 0.03 0.00 0.00 0.00 0.00 0.00 0.00 0.02 0.03 0.02
0.00 0.00 0.00 0.00 0.00 0.00 0.00 0.00 0.00 0.00 0.00 0.00 0.00 0.00 0.00 0.00 0.00 0.01 0.03 0.00 0.00 0.01 0.00 0.03 0.07 0.10 0.13 0.15 0.09 0.07 0.04 0.08 0.16 0.18 0.09 0.01 0.02 0.14 0.10 0.01 0.00 0.00 0.00 0.00 0.00 0.00 0.02 0.03 0.02
0.00 0.00 0.00 0.00 0.00 0.00 0.00 0.00 0.00 0.00 0.00 0.00 0.00 0.00 0.00 0.00 0.00 0.01 0.02 0.01 0.03 0.04 0.03 0.03 0.08 0.11 0.14 0.14 0.11 0.07 0.07 0.07 0.16 0.15 0.07 0.00 0.00 0.01 0.02 0.01 0.00 0.00 0.00 0.00 0.00 0.01 0.03 0.03 0.03
0.00 0.00 0.00 0.00 0.00 0.00 0.00 0.00 0.00 0.00 0.00 0.00 0.00 0.00 0.00 0.00 0.00 0.00 0.03 0.02 0.02 0.06 0.16 0.20 0.08 0.14 0.13 0.14 0.14 0.12 0.06 0.04 0.04 0.07 0.03 0.01 0.00 0.00 0.00 0.00 0.00 0.00 0.00 0.00 0.00 0.03 0.03 0.02 0.03
0.00 0.00 0.00 0.00 0.00 0.00 0.00 0.00 0.00 0.00 0.00 0.00 0.00 0.00 0.00 0.00 0.00 0.00 0.02 0.06 0.05 0.11 0.22 0.72 0.71 0.60 0.23 0.13 0.12 0.15 0.05 0.03 0.02 0.01 0.01 0.00 0.00 0.00 0.00 0.00 0.00 0.00 0.00 0.00 0.02 0.04 0.04 0.01 0.02
0.00 0.00 0.00 0.00 0.00 0.00 0.00 0.00 0.00 0.00 0.00 0.00 0.00 0.00 0.00 0.00 0.00 0.00 0.02 0.07 0.10 0.10 0.30 0.64 1.03 0.67 0.47 0.38 0.32 0.22 0.13 0.02 0.01 0.01 0.00 0.00 0.00 0.00 0.00 0.00 0.00 0.00 0.01 0.01 0.04 0.04 0.03 0.01 0.03
0.00 0.00 0.00 0.00 0.00 0.00 0.00 0.00 0.00 0.00 0.00 0.00 0.00 0.00 0.00 0.00 0.00 0.00 0.02 0.06 0.09 0.15 0.25 0.45 0.49 0.73 0.68 0.68 0.61 0.35 0.20 0.07 0.00 0.00 0.00 0.00 0.00 0.00 0.00 0.00 0.00 0.00 0.01 0.02 0.05 0.04 0.01 0.01 0.01
0.00 0.00 0.00 0.00 0.00 0.00 0.00 0.00 0.00 0.00 0.00 0.00 0.00 0.00 0.00 0.00 0.00 0.00 0.00 0.03 0.09 0.16 0.23 0.25 0.34 0.48 0.68 0.72 0.70 0.54 0.33 0.08 0.00 0.00 0.00 0.00 0.00 0.00 0.00 0.00 0.00 0.00 0.01 0.02 0.04 0.01 0.00 0.00 0.00
0.00 0.00 0.00 0.00 0.00 0.00 0.00 0.00 0.00 0.00 0.00 0.00 0.00 0.00 0.00 0.00 0.00 0.00 0.00 0.00 0.08 0.19 0.16 0.26 0.36 0.39 0.35 0.39 0.54 0.69 0.64 0.46 0.24 0.12 0.04 0.01 0.00 0.00 0.00 0.00 0.00 0.00 0.00 0.01 0.01 0.00 0.00 0.00 0.00
0.00 0.00 0.00 0.00 0.00 0.00 0.00 0.00 0.00 0.00 0.00 0.00 0.00 0.00 0.00 0.00 0.00 0.00 0.00 0.00 0.00 0.08 0.19 0.20 0.46 0.45 0.34 0.31 0.35 0.39 0.42 0.48 0.56 0.39 0.19 0.11 0.04 0.01 0.00 0.00 0.00 0.00 0.00 0.00 0.00 0.00 0.00 0.00 0.00
0.00 0.00 0.00 0.00 0.00 0.00 0.00 0.00 0.00 0.00 0.00 0.00 0.00 0.00 0.00 0.00 0.00 0.00 0.00 0.00 0.00 0.00 0.11 0.18 0.27 0.54 0.54 0.32 0.31 0.34 0.40 0.37 0.37 0.50 0.36 0.21 0.11 0.06 0.01 0.00 0.00 0.00 0.00 0.00 0.00 0.00 0.00 0.00 0.00
0.00 0.00 0.00 0.00 0.00 0.00 0.00 0.00 0.00 0.00 0.00 0.00 0.00 0.00 0.00 0.00 0.00 0.00 0.00 0.00 0.00 0.00 0.02 0.11 0.18 0.29 0.47 0.64 0.47 0.47 0.37 0.36 0.32 0.30 0.31 0.33 0.26 0.20 0.08 0.03 0.00 0.00 0.00 0.00 0.00 0.00 0.00 0.00 0.00
0.00 0.00 0.00 0.00 0.00 0.00 0.00 0.00 0.00 0.00 0.00 0.00 0.00 0.00 0.00 0.00 0.00 0.00 0.00 0.00 0.00 0.00 0.01 0.26 0.23 0.25 0.42 0.36 0.78 1.27 0.73 0.62 0.34 0.28 0.27 0.26 0.32 0.47 0.42 0.18 0.10 0.04 0.00 0.00 0.00 0.00 0.00 0.00 0.00
0.00 0.00 0.00 0.00 0.00 0.00 0.00 0.00 0.00 0.00 0.00 0.00 0.00 0.00 0.00 0.00 0.00 0.00 0.00 0.00 0.00 0.00 0.00 0.03 0.37 0.46 0.37 0.56 0.63 0.91 1.70 1.37 0.72 0.40 0.24 0.31 0.30 0.21 0.24 0.27 0.17 0.09 0.02 0.00 0.00 0.00 0.00 0.00 0.00
0.00 0.00 0.00 0.00 0.00 0.00 0.00 0.00 0.00 0.00 0.00 0.00 0.00 0.00 0.00 0.00 0.00 0.00 0.00 0.00 0.00 0.00 0.00 0.00 0.03 0.44 0.74 0.77 1.00 1.50 1.29 1.41 1.03 0.59 0.56 0.40 0.25 0.31 0.37 0.50 0.53 0.36 0.15 0.04 0.00 0.00 0.00 0.00 0.00
0.00 0.00 0.00 0.00 0.00 0.00 0.00 0.00 0.00 0.00 0.00 0.00 0.00 0.00 0.00 0.00 0.00 0.00 0.00 0.00 0.00 0.00 0.00 0.00 0.01 0.12 0.47 0.95 1.25 1.15 1.37 0.92 0.56 0.32 0.33 0.50 0.58 0.57 0.48 0.57 0.67 0.55 0.44 0.32 0.15 0.02 0.00 0.00 0.00
0.00 0.00 0.00 0.00 0.00 0.00 0.00 0.00 0.00 0.00 0.00 0.00 0.00 0.00 0.00 0.00 0.00 0.00 0.00 0.00 0.00 0.00 0.00 0.00 0.00 0.04 0.12 0.53 1.01 1.27 0.90 0.65 0.44 0.31 0.22 0.19 0.24 0.34 0.54 0.67 0.58 0.43 0.44 0.40 0.28 0.11 0.04 0.01 0.00
0.00 0.00 0.00 0.00 0.00 0.00 0.00 0.00 0.00 0.00 0.00 0.00 0.00 0.00 0.00 0.00 0.00 0.00 0.00 0.00 0.00 0.00 0.00 0.00 0.00 0.03 0.09 0.32 0.59 0.89 0.81 0.66 0.50 0.40 0.29 0.24 0.17 0.16 0.19 0.28 0.38 0.37 0.31 0.25 0.19 0.14 0.11 0.10 0.06
0.00 0.00 0.00 0.00 0.00 0.00 0.00 0.00 0.00 0.00 0.00 0.00 0.00 0.00 0.00 0.00 0.00 0.00 0.00 0.00 0.00 0.00 0.00 0.01 0.03 0.05 0.05 0.18 0.39 0.54 0.62 0.51 0.44 0.30 0.25 0.19 0.16 0.15 0.15 0.20 0.25 0.21 0.18 0.20 0.16 0.09 0.06 0.08 0.11
0.00 0.00 0.00 0.00 0.00 0.00 0.00 0.00 0.00 0.00 0.00 0.00 0.00 0.00 0.00 0.00 0.00 0.00 0.00 0.00 0.00 0.00 0.00 0.01 0.02 0.05 0.05 0.09 0.23 0.39 0.44 0.43 0.33 0.27 0.18 0.13 0.10 0.07 0.07 0.10 0.15 0.19 0.18 0.13 0.10 0.08 0.06 0.07 0.09
0.00 0.00 0.00 0.00 0.00 0.00 0.00 0.00 0.00 0.00 0.00 0.00 0.00 0.00 0.00 0.00 0.00 0.00 0.00 0.00 0.00 0.00 0.00 0.01 0.01 0.05 0.09 0.11 0.15 0.26 0.24 0.23 0.22 0.17 0.16 0.09 0.04 0.03 0.04 0.04 0.05 0.08 0.10 0.10 0.12 0.12 0.07 0.05 0.07
0.00 0.00 0.00 0.00 0.00 0.00 0.00 0.00 0.00 0.00 0.00 0.00 0.00 0.00 0.00 0.00 0.00 0.00 0.00 0.00 0.00 0.01 0.02 0.02 0.02 0.05 0.08 0.13 0.14 0.20 0.33 0.20 0.11 0.06 0.04 0.04 0.03 0.04 0.06 0.05 0.05 0.05 0.06 0.08 0.07 0.10 0.10 0.05 0.04
0.00 0.00 0.00 0.00 0.00 0.00 0.00 0.00 0.00 0.00 0.00 0.00 0.00 0.00 0.00 0.00 0.00 0.00 0.00 0.00 0.01 0.04 0.05 0.06 0.05 0.09 0.10 0.14 0.21 0.19 0.33 0.37 0.21 0.14 0.08 0.04 0.02 0.03 0.04 0.07 0.07 0.08 0.09 0.09 0.06 0.05 0.04 0.04 0.05
0.00 0.00 0.00 0.00 0.00 0.01 0.00 0.00 0.00 0.00 0.00 0.00 0.00 0.00 0.00 0.00 0.00 0.01 0.01 0.01 0.02 0.07 0.14 0.06 0.06 0.09 0.18 0.25 0.28 0.29 0.23 0.31 0.23 0.21 0.23 0.16 0.08 0.07 0.05 0.07 0.06 0.10 0.13 0.13 0.13 0.09 0.05 0.03 0.04
0.00 0.00 0.00 0.00 0.00 0.00 0.00 0.00 0.00 0.00 0.00 0.00 0.00 0.00 0.00 0.00 0.00 0.00 0.03 0.02 0.01 0.03 0.08 0.08 0.07 0.08 0.17 0.25 0.29 0.22 0.24 0.23 0.20 0.22 0.15 0.23 0.28 0.14 0.08 0.06 0.08 0.10 0.11 0.16 0.20 0.19 0.14 0.09 0.07
0.00 0.00 0.00 0.00 0.00 0.01 0.01 0.00 0.00 0.00 0.00 0.00 0.00 0.00 0.00 0.00 0.00 0.01 0.03 0.03 0.02 0.04 0.06 0.08 0.11 0.13 0.15 0.18 0.26 0.29 0.21 0.26 0.35 0.31 0.36 0.24 0.25 0.32 0.15 0.13 0.12 0.14 0.17 0.19 0.22 0.18 0.14 0.13 0.11
0.00 0.00 0.00 0.00 0.00 0.01 0.02 0.02 0.00 0.00 0.00 0.00 0.00 0.00 0.00 0.00 0.00 0.00 0.01 0.03 0.03 0.03 0.07 0.10 0.14 0.15 0.15 0.22 0.30 0.51 0.29 0.25 0.38 0.51 0.41 0.28 0.20 0.26 0.29 0.19 0.19 0.17 0.20 0.19 0.15 0.15 0.14 0.09 0.07